Flag for USA Past Weather in Kykotsmovi Village, Hopi, Arizona, USA — Yesterday and Last 2 Weeks

Now
42 °F

Overcast.


Feels Like: 40 °F
Forecast: 21 / 36 °F
Wind: 3 mph from South

Location: Winslow Municipal Airport

Current Time: Jan 20, 2017 at 7:04:48 pm

Latest Report: Jan 20, 2017 at 5:56 pm


Visibility: 10 mi

Pressure: 29.51 "Hg (23.88 "Hg at 1727m altitude)

Humidity: 65%

Dew Point: 31 °F

Location of Kykotsmovi Village, HopiLocation

Past Weather in Kykotsmovi Village, Hopi — Graph

°F

Kykotsmovi Village, Hopi Temperature Yesterday

Maximum temperature yesterday: 48 °F (at 3:56 pm)
Minimum temperature yesterday: 31 °F (at 11:56 pm)
Average temperature yesterday: 39 °F

High & Low Weather Summary for the Past Weeks

 TemperatureHumidityPressure
High66 °F (Jan 9, 12:56 pm)100% (Jan 14, 7:56 am)30.54 "Hg (Jan 14, 7:56 am)
Low16 °F (Jan 7, 5:56 am)11% (Jan 11, 2:56 am)29.51 "Hg (Jan 20, 5:56 pm)
Average41 °F73%30.04 "Hg
* Reported Jan 5 5:56 pm — Jan 20 5:56 pm, Kykotsmovi Village, Hopi, Weather by CustomWeather, © 2017

Note: Actual official high and low records may vary slightly from our data, if they occured in-between our weather recording intervals... More about our weather records

Advertising

Kykotsmovi Village, Hopi Weather History for the Previous 24 Hours

Scroll right to see more
 ConditionsComfort  
Time TempWeatherWind HumidityBarometerVisibility
5:56 pm
Fri, Jan 20
42 °FOvercast.3 mph65%29.51 "Hg10 mi
4:56 pm43 °FScattered clouds.17 mph62%29.53 "Hg10 mi
3:56 pm46 °FMostly cloudy.18 mph51%29.54 "Hg10 mi
2:56 pm43 °FMostly cloudy.9 mph62%29.56 "Hg10 mi
1:56 pm43 °FOvercast.17 mph56%29.58 "Hg10 mi
12:56 pm45 °FMostly cloudy.15 mph56%29.61 "Hg10 mi
11:56 am44 °FOvercast.18 mph58%29.68 "Hg10 mi
10:56 am42 °FOvercast.12 mph62%29.70 "Hg10 mi
9:56 am39 °FOvercast.6 mph67%29.72 "Hg10 mi
8:56 am37 °FPartly sunny.7 mph76%29.73 "Hg10 mi
7:56 am36 °FBroken clouds.12 mph79%29.77 "Hg10 mi
6:56 am34 °FMostly cloudy.5 mph82%29.77 "Hg10 mi
5:56 am33 °FPassing clouds.5 mph78%29.75 "Hg10 mi
4:56 am35 °FPassing clouds.9 mph72%29.73 "Hg10 mi
3:56 am36 °FPassing clouds.12 mph73%29.71 "Hg10 mi
2:56 am35 °FPassing clouds.6 mph75%29.73 "Hg10 mi
1:56 am36 °FPassing clouds.7 mph75%29.71 "Hg10 mi
12:56 am35 °FPassing clouds.8 mph78%29.72 "Hg10 mi
11:56 pm
Thu, Jan 19
31 °FClear.5 mph96%29.77 "Hg10 mi
10:56 pm35 °FPassing clouds.14 mph88%29.78 "Hg10 mi
9:56 pm34 °FPassing clouds.No wind92%29.79 "Hg10 mi
8:56 pm38 °FOvercast.8 mph83%29.80 "Hg10 mi
7:56 pm36 °FClear.8 mph89%29.84 "Hg10 mi
Weather by CustomWeather, © 2017

See weather overviewHow to use our weather pages